Weather in Cherkassy

Russia / Orenburg Oblast     51°48′31″N   56°20′36″E
temp.,
°C
wind,
m/s
gust,
m/s
humid.,
%
clouds,
%
prec.,
mm/h
press.,
hPa
HPBL,
m
3 march, wed
wed323:00−7sw71494100 1.8 1012744
02:00−5sw81495100 1.6 1009721
05:00−5sw71495100 3.4 1007718
08:00−2sw81496100 2.3 1005857
11:00−2sw91496100 4.1 1005863
14:00−1sw81296100 1.0 1004844
17:00−1sw71197100 2.1 1004738
20:00−1sw51097100 1.1 1003528
4 march, thu
thu423:00−2wsw5897100 1.8 1004337
02:00−6wnw499592 0.3 1004278
05:00−11w449686 0.4 100779
08:00−11w499596 0.1 1009213
11:00−10w479597 0.2 1011270
14:00−8wsw699398 0.0 1011489
17:00−7sw6119099 0.1 1011529
20:00−7sw8159198 0.2 1010722
5 march, fri
fri523:00−3sw10179599 1.0 1008964
02:00−2sw101792100 0.9 1007836
05:00−2sw91590100 1.1 1009899
08:00−4sw81591100 0.1 1010628
11:00−3sw91690100 0.1 1010676
14:00−1sw101787100 0.0 1009962
17:000sw111798100 2.2 10081093
20:00+1sw91597100 1.4 1007864
6 march, sat
sat623:00+1wsw91698100 1.9 1008829
02:00+1wsw81598100 1.1 1009701
05:00−3nw5895100 2.6 1012334
08:00−8nnw3392100 0.0 101450
11:00−7ene128696 0.0 1015114
14:00−4ese2385100 0.0 1013247
17:00−3ese5797100 1.1 1010348
20:000sw91597100 3.1 1007843
7 march, sun
sun723:00+1sw81598100 5.3 1005711
02:00−4wnw6993100 0.8 1004388
05:00−8nw51094100 0.8 1007301
08:00−10wnw4795100 0.0 1010254
11:00−11wnw4792100 0.0 1012333
14:00−11wnw588786 0.0 1014561
17:00−12wnw479082 0.0 1015450
20:00−17wnw339424 0.0 101721